Regional Weather Roundup
Issued by NWS State College, PA

Home | Current Version | Previous Version | Text Only | Print | Product List | Glossary Off
Versions: 1 2 3 4 5 6 7 8 9 10 11 12 13 14 15 16 17 18 19 20 21 22 23 24 25 26 27 28 29 30 31 32 33 34 35 36 37 38 39 40 41 42 43 44 45 46 47 48 49 50

000
ASUS41 KCTP 071110
RWRCTP

REGIONAL WEATHER ROUNDUP
NATIONAL WEATHER SERVICE STATE COLLEGE PA
700 AM EDT TUE JUL 07 2015

Note: "fair" indicates few or no clouds below 12,000 feet with no
significant weather and/or obstructions to visibility.

* = STATION THAT DOES NOT REPORT PRECIPITATION /E.G. RAIN...SNOW...ETC/
    THUNDER OR FOG.

PAZ002>004-007>009-013>016-020>023-029>032-071200-
WESTERN PENNSYLVANIA

CITY           SKY/WX    TMP DP  RH WIND       PRES   REMARKS
ERIE           SUNNY     72  63  73 S12G20    29.95S
MEADVILLE      SUNNY     67  63  87 S5        30.01S FOG
FRANKLIN*      MOSUNNY   64  63  94 S7        30.04S
NEW CASTLE     FAIR      68  67  96 CALM      30.02F
BEAVER COUNTY  CLEAR     66  64  94 S5        30.03  FOG
BUTLER*        SUNNY     66  64  94 S6        30.05F
PITTSBURGH INT PTCLDY    67  65  93 S5        30.04R FOG
PITTSBURGH     CLEAR     67  63  87 S9        30.04S FOG
INDIANA*       CLOUDY    68  68 100 SW8       30.11R FOG
LATROBE        MOSUNNY   68  68 100 SW9       30.07R
WASHINGTON CO* NOT AVBL
$$

PAZ004>006-010>012-017>019-024>028-033>037-041-042-045-046-049>053-071200-
CENTRAL PENNSYLVANIA

CITY           SKY/WX    TMP DP  RH WIND       PRES   REMARKS
BRADFORD       CLOUDY    67  64  90 SW7       30.06R FOG
DUBOIS         CLOUDY    69  66  90 SW6       30.06R FOG
CLEARFIELD     CLOUDY    68  66  93 S6        30.05S FOG
JOHNSTOWN      CLOUDY    66  64  93 SW7       30.10S FOG
ALTOONA        CLOUDY    68  66  93 S7        30.08R
STATE COLLEGE  CLOUDY    68  68 100 SW3       30.06R FOG
WILLIAMSPORT   LGT RAIN  72  70  93 CALM      30.00R FOG
SELINSGROVE    CLOUDY    73  70  90 VRB5      30.04R FOG
FT INDIANTOWN  CLOUDY    72  71  95 W2        30.03S
CAPITAL CITY   PTSUNNY   73  70  90 W5        30.03R
HARRISBURG     CLOUDY    74  70  87 SW3       30.02R
YORK           PTSUNNY   72  70  93 NW3       30.05R
$$

PAZ038>040-043-044-047-048-054-055-060>062-067>071-071200-
EASTERN PENNSYLVANIA

CITY           SKY/WX    TMP DP  RH WIND       PRES   REMARKS
SCRANTON       CLOUDY    72  71  97 CALM      30.03F FOG
MOUNT POCONO   CLOUDY    70  32  24 S6        30.08S HAZE
ALLENTOWN      CLOUDY    75  71  87 S6        30.03S
QUAKERTOWN*    PTSUNNY   73  72  94 SW5       30.05S
READING        CLOUDY    74  71  91 S3        30.02S
LANCASTER      CLOUDY    73  72  96 SE5       30.03S FOG
COATESVILLE    CLOUDY    72  72 100 CALM      30.06S FOG
POTTSTOWN      CLOUDY    73  71  93 CALM      30.05S
BLUE BELL      CLOUDY    77  72  83 SW5       30.04S
DOYLESTOWN     CLOUDY    72  71  97 S5        30.04S
WILLOW GROVE   NOT AVBL
NORTH PHILA    PTSUNNY   77  71  82 S5        30.05S
PHILADELPHIA   MOSUNNY   77  71  82 S7        30.04S
$$


USA.gov is the U.S. government's official web portal to all federal, state and local government web resources and services.